Location: Unspecified
(23.6486°N, 0.0000°E)
Time: 01:28:29
(UTC+00:00)

JUGNU - Visible Passes

Search period start: 04 April 2026 00:00
Search period end: 14 April 2026 00:00
Orbit: 833 x 860 km, 20.0° (Epoch: 29 March)

Date Brightness Start Highest point End Pass type
(mag) Time Alt. Az. Time Alt. Az. Time Alt. Az.
4 Apr ? 19:48:48 10° W 19:54:37 61° S 19:55:54 49° SE visible
5 Apr ? 19:32:29 10° W 19:38:17 60° S 19:40:39 35° ESE visible
5 Apr ? 21:21:30 10° W 21:22:25 14° WSW 21:22:25 14° WSW visible
6 Apr ? 19:16:09 10° W 19:21:55 58° S 19:25:23 24° ESE visible
6 Apr ? 21:05:13 10° W 21:07:09 20° WSW 21:07:09 20° WSW visible
7 Apr ? 18:59:49 10° W 19:05:34 57° S 19:10:07 17° ESE visible
7 Apr ? 20:48:58 10° W 20:51:53 25° WSW 20:51:53 25° WSW visible
8 Apr ? 18:43:30 10° W 18:49:14 55° S 18:54:51 11° ESE visible
8 Apr ? 20:32:42 10° WSW 20:36:37 30° SW 20:36:37 30° SW visible
9 Apr ? 20:16:27 10° WSW 20:21:21 30° SSW 20:21:21 30° SSW visible
10 Apr ? 20:00:13 10° WSW 20:05:10 28° SSW 20:06:07 27° S visible
11 Apr ? 19:44:01 10° WSW 19:48:48 26° SSW 19:50:53 21° SSE visible
12 Apr ? 19:27:50 10° WSW 19:32:26 24° SSW 19:35:41 15° SSE visible
13 Apr ? 19:11:41 10° WSW 19:16:03 22° SSW 19:20:28 10° SSE visible
